Overview Statistics Trail Chart Weather Telemetry Raw packets
 

This is the latest recevied weather packets stored in our database for station/object AG1T-20. If no packets are shown the sender has not sent any weather packets the latest 10 day(s).

<< 1 2 3 4 >>
Time Temp. Humidity Pressure Rain* Wind** Luminosity Snow
1788615004 18.89° C 32% 1026.9 hPa 0 mm - 16 W/m² -
1788614405 19.44° C 31% 1026.6 hPa 0 mm - 12 W/m² -
1788613805 19.44° C 30% 1026.1 hPa 0 mm - 9 W/m² -
1788613205 18.89° C 32% 1026.4 hPa 0 mm - 4 W/m² -
1788612605 18.33° C 34% 1026.7 hPa 0 mm - 2 W/m² -
1788612005 18.89° C 32% 1026.3 hPa 0 mm - 0 W/m² -
1788611405 19.44° C 31% 1025.6 hPa 0 mm - 0 W/m² -
1788610824 20.56° C 29% 1025 hPa 0 mm - 0 W/m² -
1788610205 20° C 29% 1025 hPa 0 mm - 0 W/m² -
1788609605 20.56° C 29% 1024.9 hPa 0 mm - 0 W/m² -
1788609005 21.11° C 29% 1024.6 hPa 0 mm - 0 W/m² -
1788608405 21.11° C 28% 1024.2 hPa 0 mm - 0 W/m² -
1788607805 21.67° C 27% 1023.8 hPa 0 mm - 0 W/m² -
1788607205 22.22° C 27% 1023.4 hPa 0 mm - 0 W/m² -
1788606605 22.22° C 27% 1023.3 hPa 0 mm - 0 W/m² -
1788606004 22.78° C 26% 1023.3 hPa 0 mm - 0 W/m² -
1788605405 22.78° C 26% 1023.2 hPa 0 mm - 0 W/m² -
1788604804 22.78° C 26% 1023 hPa 0 mm - 0 W/m² -
1788604204 23.33° C 26% 1022.7 hPa 0 mm - 0 W/m² -
1788603605 23.33° C 25% 1022.4 hPa 0 mm - 0 W/m² -
1788603005 22.78° C 26% 1022.7 hPa 0 mm - 0 W/m² -
1788602404 23.33° C 26% 1022.5 hPa 0 mm - 0 W/m² -
1788601805 23.33° C 25% 1022.1 hPa 0 mm - 0 W/m² -
1788601204 23.33° C 26% 1022.2 hPa 0 mm - 0 W/m² -
1788600605 23.33° C 26% 1022.1 hPa 0 mm - 0 W/m² -

* Rain latest hour (hover to see other rain measurements)
** Current wind speed in m/s (hover to see current wind gust speed)